Home > Weather > Holon > Past weeks

Flag for Israel Weather for the Past 2 Weeks in Holon, Israel

Now
61 °F

Clear.


Feels Like: 61 °F
Forecast: 71 / 82 °F
Wind: 6 mph from East

Location: Dov Airport

Current Time: Apr 30, 2016 at 6:39:23 AM

Latest Report: Apr 30, 2016 at 6:00 AM


Visibility: 10 mi

Pressure: 29.95 "Hg

Humidity: 88%

Dew Point: 57 °F

Location of HolonLocation

Historic Weather in Holon — Graph

°F

Holon Temperature Yesterday

Maximum temperature yesterday: 73 °F (at 1:50 PM)
Minimum temperature yesterday: 64 °F (at 6:00 AM)
Average temperature yesterday: 70 °F

High & Low Weather Summary for the Past Weeks

 TemperatureHumidityPressure
High95 °F (Apr 26, 10:50 AM)94% (Apr 23, 6:00 AM)30.12 "Hg (Apr 23, 6:00 AM)
Low59 °F (Apr 18, 5:00 AM)16% (Apr 26, 10:50 AM)29.56 "Hg (Apr 25, 5:00 AM)
Average71 °F67%29.93 "Hg
* Reported Apr 14 9:50 PM — Apr 29 9:50 PM, Holon, Weather by CustomWeather, © 2016

Note: Actual official high and low records may vary slightly from our data, if they occured in-between our weather recording intervals... More about our weather records

Advertising

Holon Weather History for the Previous 24 Hours

Scroll right to see more
 ConditionsComfort  
Time TempWeatherWind HumidityBarometerVisibility
9:50 PM
Fri, Apr 29
66 °FClear.5 mph78%29.98 "Hg10 mi
8:50 PM68 °FPassing clouds.5 mph73%29.98 "HgN/A
7:50 PM68 °FScattered clouds.8 mph73%29.98 "HgN/A
6:50 PM70 °FScattered clouds.9 mph69%29.98 "HgN/A
5:50 PM72 °FSunny.12 mph69%29.98 "Hg10 mi
4:50 PM72 °FSunny.12 mph65%29.98 "Hg10 mi
3:50 PM72 °FSunny.13 mph65%30.01 "Hg10 mi
2:50 PM73 °FSunny.12 mph57%30.01 "Hg10 mi
1:50 PM73 °FSunny.10 mph57%30.01 "Hg10 mi
12:50 PM72 °FSunny.9 mph57%30.01 "Hg10 mi
11:50 AM72 °FSunny.9 mph61%30.04 "Hg10 mi
10:50 AM72 °FSunny.8 mph61%30.04 "Hg10 mi
9:50 AM72 °FPassing clouds.6 mph61%30.04 "HgN/A
8:50 AM70 °FPassing clouds.6 mph60%30.04 "HgN/A
7:50 AM68 °FPassing clouds.5 mph64%30.01 "HgN/A
6:50 AM64 °FPassing clouds.3 mph68%30.01 "HgN/A
6:00 AM64 °FPassing clouds.2 mph68%30.01 "HgN/A
Weather by CustomWeather, © 2016

See weather overviewHow to use our weather pages